CAPE
nan nan nan nan nan nan nan nan nan nan nan nan nan nan nan nan nan nan nan nan nan nan nan nan nan nan nan nan nan nan nan nan nan nan nan nan nan nan 0 0 0 1 1 1 1 2 4 6 6 8 11 14 18 18 23 27 27 30 35 39 39 44 46 47 47 48 47 47 46 46 42 40 37 37 35 38 40 40 41 40 40 39 40 45 45 51
nan nan nan nan nan nan nan nan nan nan nan nan nan nan nan nan nan nan nan nan nan nan nan nan nan nan nan nan nan nan nan nan nan nan nan nan nan nan nan nan nan 0 0 1 1 1 3 4 4 5 7 10 14 14 17 22 22 26 29 33 33 38 41 45 45 46 45 42 39 39 34 31 30 30 30 35 37 37 39 40 40 41 43 48 48 57
nan nan nan nan nan nan nan nan nan nan nan nan nan nan nan nan nan nan nan nan nan nan nan nan nan nan nan nan nan nan nan nan nan nan nan nan nan nan nan nan nan nan nan 0 0 1 2 3 3 5 7 10 12 12 15 18 18 20 24 27 27 30 34 37 37 38 38 35 31 31 26 26 27 27 31 34 36 36 38 39 39 44 48 53 53 60
nan nan nan nan nan nan nan nan nan nan nan nan nan nan nan nan nan nan nan nan nan nan nan nan nan nan nan nan nan nan nan nan nan nan nan nan nan nan nan 0 0 0 0 1 1 2 3 4 4 6 8 10 13 13 14 17 17 18 20 23 23 24 26 28 28 31 30 29 25 25 24 25 29 29 31 33 36 36 38 42 42 45 51 57 57 64
nan nan nan nan nan nan nan nan nan nan nan nan nan nan nan nan nan nan nan nan nan nan nan nan nan nan nan nan nan nan nan nan nan nan nan nan nan nan nan 0 0 0 1 2 2 3 4 5 5 7 9 10 12 12 13 15 15 17 18 19 19 21 24 26 26 26 26 25 25 25 25 27 29 29 30 34 37 37 42 42 42 46 50 59 59 65
nan nan nan nan nan nan nan nan nan nan nan nan nan nan nan nan nan nan nan nan nan nan nan nan nan nan nan nan nan nan nan nan nan nan nan nan nan nan nan 0 0 1 1 2 2 3 4 4 4 5 6 7 8 8 9 12 12 12 14 17 17 18 19 22 22 22 22 22 23 23 25 25 27 27 26 31 38 38 41 42 42 44 46 54 54 63
nan nan nan nan nan nan nan nan nan nan nan nan nan nan nan nan nan nan nan nan nan nan nan nan nan nan nan nan nan nan nan nan nan nan nan nan nan nan nan 0 0 1 1 1 1 2 2 3 3 3 3 4 4 4 6 7 7 8 10 11 11 13 14 15 15 16 17 18 20 20 22 23 24 24 25 29 34 34 38 41 41 42 41 48 48 55
nan nan nan nan nan nan nan nan nan nan nan nan nan nan nan nan nan nan nan nan nan nan nan nan nan nan nan nan nan nan nan nan nan nan nan nan nan nan nan nan nan nan nan nan nan nan nan nan nan 0 0 1 1 1 2 3 3 3 4 4 4 5 7 8 8 9 12 13 16 16 18 19 19 19 20 20 22 22 26 33 33 39 43 45 45 50
nan nan nan nan nan nan nan nan nan nan nan nan nan nan nan nan nan nan nan nan nan nan nan nan nan nan nan nan nan nan nan nan nan nan nan nan nan nan nan nan nan nan nan nan nan nan nan nan nan nan 0 0 1 1 2 2 2 2 3 4 4 4 6 8 8 10 11 13 15 15 17 17 17 17 19 18 19 19 21 27 27 37 46 51 51 57
nan nan nan nan nan nan nan nan nan nan nan nan nan nan nan nan nan nan nan nan nan nan nan nan nan nan nan nan nan nan nan nan nan nan nan nan nan nan nan nan nan nan nan nan nan nan nan nan nan nan nan 0 1 1 1 1 1 1 1 2 2 3 4 6 6 8 11 13 15 15 16 17 19 19 20 19 21 21 21 27 27 31 40 50 50 57
nan nan nan nan nan nan nan nan nan nan nan nan nan nan nan nan nan nan nan nan nan nan nan nan nan nan nan nan nan nan nan nan nan nan nan nan nan nan nan nan nan nan nan nan nan nan nan nan nan nan nan nan nan nan nan nan nan nan nan 0 0 1 2 5 5 8 12 15 17 17 19 20 22 22 22 21 22 22 24 24 24 27 33 42 42 54
nan nan nan nan nan nan nan nan nan nan nan nan nan nan nan nan nan nan nan nan nan nan nan nan nan nan nan nan nan nan nan nan nan nan nan nan nan nan nan nan nan nan nan nan nan nan nan nan nan nan nan nan nan nan nan nan nan nan nan 0 0 1 3 7 7 10 13 17 19 19 21 22 22 22 23 23 24 24 24 25 25 26 29 37 37 49
nan nan nan nan nan nan nan nan nan nan nan nan nan nan nan nan nan nan nan nan nan nan nan nan nan nan nan nan nan nan nan nan nan nan nan nan nan nan nan nan nan nan nan nan nan nan nan nan nan nan nan nan nan nan nan nan nan nan nan 1 1 3 6 9 9 11 14 16 19 19 21 21 21 21 23 24 24 24 26 27 27 31 34 40 40 51
nan nan nan nan nan nan nan nan nan nan nan nan nan nan nan nan nan nan nan nan nan nan nan nan nan nan nan nan nan nan nan nan nan nan nan nan nan nan nan nan nan nan nan nan nan nan nan nan nan nan nan nan nan nan nan nan nan 0 1 3 3 6 8 10 10 12 14 15 18 18 18 18 21 21 24 26 29 29 31 32 32 35 38 43 43 50
nan nan nan nan nan nan nan nan nan nan nan nan nan nan nan nan nan nan nan nan nan nan nan nan nan nan nan nan nan nan nan nan nan nan nan nan nan nan nan nan nan nan nan nan nan nan nan nan nan nan nan nan nan nan nan nan nan 2 3 6 6 8 10 12 12 13 14 16 17 17 19 20 25 25 27 29 30 30 32 34 34 38 42 44 44 49
nan nan nan nan nan nan nan nan nan nan nan nan nan nan nan nan nan nan nan nan nan nan nan nan nan nan nan nan nan nan nan nan nan nan nan nan nan nan nan nan nan nan nan nan nan nan nan nan nan nan nan nan nan nan nan 0 0 3 5 7 7 8 10 12 12 14 15 17 18 18 20 24 27 27 28 30 31 31 32 34 34 39 39 43 43 47
nan nan nan nan nan nan nan nan nan nan nan nan nan nan nan nan nan nan nan nan nan nan nan nan nan nan nan nan nan nan nan nan nan nan nan nan nan nan nan nan nan nan nan nan nan nan nan nan nan nan nan nan nan nan nan 0 0 3 5 8 8 9 11 13 13 14 16 17 19 19 22 24 26 26 26 29 31 31 33 35 35 37 41 42 42 47
nan nan nan nan nan nan nan nan nan nan nan nan nan nan nan nan nan nan nan nan nan nan nan nan nan nan nan nan nan nan nan nan nan nan nan nan nan nan nan nan nan nan nan nan nan nan nan nan nan nan nan nan nan nan nan 0 0 3 5 8 8 9 10 12 12 14 15 18 19 19 20 23 24 24 24 27 30 30 32 36 36 36 41 43 43 46
nan nan nan nan nan nan nan nan nan nan nan nan nan nan nan nan nan nan nan nan nan nan nan nan nan nan nan nan nan nan nan nan nan nan nan nan nan nan nan nan nan nan nan nan nan nan nan nan nan nan nan nan nan nan 0 1 1 3 5 7 7 8 9 9 9 11 13 16 17 17 19 23 22 22 22 24 26 26 30 32 32 36 39 40 40 44
nan nan nan nan nan nan nan nan nan nan nan nan nan nan nan nan nan nan nan nan nan nan nan nan nan nan nan nan nan nan nan nan nan nan nan nan nan nan nan nan nan nan nan nan nan nan nan nan nan nan nan nan nan nan 0 1 1 2 3 4 4 4 5 6 6 8 11 14 16 16 19 21 22 22 22 23 25 25 28 31 31 34 39 41 41 43
nan nan nan nan nan nan nan nan nan nan nan nan nan nan nan nan nan nan nan nan nan nan nan nan nan nan nan nan nan nan nan nan nan nan nan nan nan nan nan nan nan nan nan nan nan nan nan nan nan nan nan nan nan nan 0 1 1 1 2 2 2 2 2 4 4 6 9 12 14 14 18 21 21 21 21 23 25 25 28 32 32 37 38 40 40 44
nan nan nan nan nan nan 0 nan nan nan 0 nan nan nan nan nan nan nan nan nan nan nan nan nan nan nan nan nan nan nan nan nan nan nan nan nan nan nan nan nan nan nan nan nan nan nan nan nan nan nan nan nan nan nan 0 0 0 1 1 1 1 1 3 4 4 6 8 11 13 13 16 19 22 22 20 23 25 25 29 33 33 35 36 42 42 45
nan nan nan nan nan nan nan nan nan nan 0 nan nan nan nan nan nan nan nan nan nan nan nan nan nan 0 0 0 nan nan nan nan nan nan nan nan nan nan nan nan nan nan nan nan nan nan nan nan nan nan nan nan nan nan 0 0 0 1 1 2 2 3 4 6 6 7 9 10 12 12 16 19 22 22 22 25 26 26 29 30 30 34 36 40 40 42
nan nan nan nan nan nan nan nan nan nan nan nan nan nan nan nan nan nan nan nan nan nan 0 1 1 1 0 nan nan nan nan nan nan nan nan nan nan nan nan nan nan nan nan nan nan nan nan nan nan nan nan nan nan nan 0 1 1 1 2 2 2 4 5 6 6 8 8 11 13 13 16 19 22 22 25 26 28 28 30 31 31 34 36 36 36 40
nan nan nan nan nan nan nan nan nan nan nan nan nan nan nan nan 1 1 3 4 4 5 5 0 0 nan nan nan nan nan nan nan nan nan nan nan nan nan nan nan nan nan nan nan nan nan nan nan nan nan nan nan nan nan nan 0 0 1 2 3 3 4 4 5 5 7 9 11 14 14 17 20 22 22 26 28 29 29 31 31 31 31 32 34 34 38
nan 1 nan nan nan 5 10 4 2 2 0 nan nan nan nan 3 5 5 3 4 4 1 nan nan nan nan nan nan nan nan nan nan nan nan nan nan nan nan nan nan nan nan nan nan nan nan nan nan nan nan nan nan nan nan nan 0 0 1 2 3 3 4 5 6 6 8 10 12 14 14 18 20 24 24 28 30 30 30 31 31 31 31 34 34 34 36
13 15 19 24 24 30 33 32 29 29 28 17 6 6 4 2 nan nan nan nan nan nan nan nan nan nan nan nan nan nan nan nan nan nan nan nan nan nan nan nan nan nan nan nan nan nan nan nan nan nan nan nan nan nan nan nan nan 1 1 3 3 3 4 6 6 8 10 13 15 15 18 21 24 24 28 30 30 30 33 34 34 35 36 36 36 35
8 9 11 13 13 13 12 9 11 11 15 19 24 24 11 nan nan nan nan nan nan nan nan nan nan nan nan nan nan nan nan nan nan nan nan nan nan nan nan nan nan nan nan nan nan nan nan nan nan nan nan nan nan nan nan nan nan 0 1 2 2 3 4 6 6 8 10 13 15 15 18 22 26 26 28 30 30 30 31 32 32 33 36 29 29 10
3 6 6 8 8 9 8 3 5 5 8 14 19 19 9 nan nan nan nan nan nan nan nan nan nan nan nan nan nan nan nan nan nan nan nan nan nan nan nan nan nan nan nan nan nan nan nan nan nan nan nan nan nan nan nan nan nan nan 1 2 2 3 4 6 6 8 9 12 15 15 18 22 25 25 27 28 29 29 29 30 30 33 28 18 18 7
nan nan nan 1 1 1 nan nan nan nan 4 10 14 14 6 nan nan nan nan nan nan nan nan nan nan nan nan nan nan nan nan nan nan nan nan nan nan nan nan nan nan nan nan nan nan nan nan nan nan nan nan nan nan nan nan nan nan nan nan 0 0 1 2 4 4 6 8 10 14 14 17 20 22 22 24 26 27 27 30 31 31 27 16 7 7 4
nan nan nan nan nan nan nan nan nan nan nan 5 6 6 nan nan nan nan nan nan nan nan nan nan nan nan nan nan nan nan nan nan nan nan nan nan nan nan nan nan nan nan nan nan nan nan nan nan nan nan nan nan nan nan nan nan nan nan nan nan nan nan 0 2 2 4 7 10 13 13 14 18 20 20 22 24 29 29 31 34 34 28 8 4 4 2
nan nan nan nan nan nan nan nan nan nan nan nan nan nan nan nan nan nan nan nan nan nan nan nan nan nan 0 0 nan nan nan nan nan nan nan nan nan nan nan nan nan nan nan nan nan nan nan nan nan nan nan nan nan nan nan nan nan nan nan nan nan nan nan nan nan 0 1 5 9 9 13 15 18 18 21 24 27 27 29 32 32 31 12 4 4 3
nan nan nan nan nan nan nan nan nan nan nan nan nan nan nan nan nan nan nan nan nan nan nan nan nan nan nan nan nan nan nan nan nan nan nan nan nan nan nan nan nan nan nan nan nan nan nan nan nan nan nan nan nan nan nan nan nan nan nan nan nan nan nan nan nan nan nan nan 1 1 10 12 18 18 20 23 27 27 29 33 33 33 26 5 5 5
nan nan nan nan nan nan nan nan nan nan nan nan nan nan nan nan nan nan nan nan nan nan nan nan nan nan nan nan nan nan nan nan nan nan nan nan nan nan nan nan nan nan nan nan nan nan nan nan nan nan nan nan nan nan nan nan nan nan nan nan nan nan nan nan nan nan nan nan nan nan nan 1 12 12 12 19 24 24 29 33 33 35 38 24 24 9
nan nan nan nan nan nan nan nan nan nan nan nan nan nan nan nan nan nan nan nan nan nan nan nan nan nan nan nan nan nan nan nan nan nan nan nan nan nan nan nan nan nan nan nan nan nan nan nan nan 1 nan nan nan nan nan nan nan nan nan nan nan nan nan nan nan nan nan nan nan nan nan nan nan nan 0 12 22 22 31 33 33 37 41 44 44 29
nan nan nan nan nan nan nan nan nan nan nan nan nan nan nan nan nan nan nan nan nan nan nan nan nan nan nan nan nan nan nan nan nan nan nan nan nan nan nan nan nan nan nan nan nan nan nan nan nan 1 1 nan nan nan nan nan nan nan nan nan nan nan nan nan nan nan nan nan nan nan nan nan nan nan nan 18 29 29 32 35 35 38 39 40 40 38
nan nan nan nan nan nan nan nan nan nan nan nan nan nan nan nan nan nan nan nan nan nan nan nan nan nan nan nan nan nan nan nan nan nan nan nan nan nan nan nan nan nan nan nan nan nan nan nan nan nan nan nan nan nan nan nan nan nan nan nan nan nan nan nan nan nan nan nan nan nan nan nan nan nan 4 21 21 21 27 34 34 31 36 36 36 38
nan nan nan nan nan nan nan nan nan nan nan nan nan nan nan nan nan nan nan nan nan nan nan nan nan nan nan nan nan nan nan nan nan nan nan nan nan nan nan nan nan nan nan nan nan nan nan nan nan nan nan nan 0 0 0 nan nan nan nan nan nan nan nan nan nan nan nan nan 0 0 1 0 nan nan 0 1 0 0 1 1 1 14 26 26 26 33
nan nan nan nan nan nan nan nan nan nan nan nan nan nan nan nan nan nan nan nan nan nan nan nan nan nan nan nan nan nan nan nan nan nan nan nan nan nan nan nan nan nan nan nan nan nan nan nan nan nan nan nan nan nan nan nan nan nan nan nan nan nan nan nan nan nan nan nan 1 1 0 nan nan nan nan nan nan nan nan nan nan 3 5 0 0 11
nan nan nan nan nan nan nan nan nan nan nan nan nan nan nan nan nan nan nan nan nan nan nan nan nan nan nan nan nan nan nan nan nan nan nan nan nan nan nan nan nan nan nan nan nan nan nan nan nan 0 2 nan nan nan nan nan nan nan 0 nan nan nan nan nan nan nan nan nan nan nan nan nan nan nan nan 0 nan nan nan nan nan nan 0 nan nan nan
nan nan nan nan nan nan nan nan nan nan nan nan nan nan nan nan nan nan nan nan nan nan nan nan nan nan nan nan nan nan nan nan nan nan nan nan nan nan nan nan nan nan nan nan nan nan 1 nan nan 1 1 0 nan nan nan nan nan 1 3 nan nan nan nan 0 0 nan nan nan nan nan nan nan 1 1 0 1 nan nan nan nan nan nan nan nan nan nan
nan nan nan nan nan nan nan nan nan nan nan nan nan nan nan nan nan nan nan nan nan nan nan nan nan nan nan nan nan nan nan nan nan nan nan nan nan nan nan nan nan nan nan nan nan 0 1 2 2 1 0 nan nan nan nan nan nan 0 1 nan nan nan 0 nan nan nan nan nan nan nan 0 nan nan nan nan nan nan nan nan nan nan 0 1 nan nan nan
nan nan nan nan nan nan nan nan nan nan nan nan nan nan nan nan nan nan nan nan nan nan nan nan nan nan nan nan nan nan nan nan nan nan nan nan nan nan nan nan nan nan nan nan nan 1 1 2 2 nan nan nan nan nan nan nan nan nan nan nan nan nan nan nan nan nan nan nan nan nan nan nan nan nan nan nan nan nan nan nan nan 6 4 nan nan nan
nan nan nan nan nan nan nan nan nan nan nan nan nan nan nan nan nan nan nan nan nan nan nan nan nan nan nan nan nan nan nan nan nan nan nan nan nan nan nan nan nan nan nan nan nan nan nan nan nan nan nan nan nan nan nan nan nan nan nan nan nan nan nan nan nan nan nan nan nan nan nan nan nan nan nan nan nan nan nan nan nan nan 0 nan nan nan
nan nan nan nan nan nan nan nan nan nan nan nan nan nan nan nan nan nan nan nan nan nan nan nan nan nan nan nan nan nan nan nan nan nan nan nan 10 10 1 nan nan nan nan nan nan nan nan nan nan nan nan nan nan nan nan nan nan nan nan 0 0 nan nan nan nan nan nan nan nan nan nan nan nan nan nan nan nan nan nan nan nan nan nan nan nan nan
nan nan nan nan nan nan nan nan nan nan nan nan nan nan nan nan nan nan nan nan nan nan nan nan nan 0 nan nan nan nan nan nan nan nan nan nan nan nan nan nan nan nan nan nan nan nan nan nan nan nan nan nan nan nan nan nan nan nan nan nan nan nan nan nan nan nan nan nan nan nan nan nan nan nan nan nan nan nan nan nan nan nan nan nan nan nan
nan nan nan nan nan nan nan nan nan nan nan nan nan nan nan nan nan nan nan nan nan nan nan nan nan 0 0 nan nan nan nan nan nan nan nan nan nan nan nan nan nan nan nan nan nan nan nan nan nan nan nan nan nan nan nan nan nan nan nan nan nan nan nan nan nan nan nan nan nan nan nan nan nan nan nan nan nan nan nan nan nan nan nan nan nan nan
nan nan nan nan nan nan nan nan nan nan nan nan nan nan nan nan nan nan nan nan nan nan nan nan nan 0 nan nan 0 0 nan 0 0 0 1 nan nan nan nan nan nan nan nan nan nan nan nan nan nan nan nan nan nan nan nan nan nan nan nan nan nan nan nan nan nan nan nan nan nan nan nan nan nan nan nan nan nan nan nan nan nan nan nan nan nan nan
nan nan nan nan nan nan nan nan nan nan nan nan nan nan nan nan 8 8 nan nan nan nan nan nan nan nan nan nan nan nan 0 1 1 1 1 0 1 1 nan nan nan nan nan nan nan nan nan nan nan nan nan nan nan nan nan nan nan nan nan nan nan nan nan nan nan nan nan nan nan nan nan nan nan nan nan nan nan nan nan nan nan nan nan nan nan nan
nan nan nan nan nan nan nan nan nan nan nan nan 0 0 nan nan nan nan nan nan nan nan nan nan nan nan 0 nan 0 0 0 1 1 1 1 1 2 2 0 nan nan nan nan nan nan nan nan nan nan nan 0 nan nan nan nan nan nan nan nan nan nan nan nan nan nan nan nan nan nan nan nan nan nan nan nan nan nan nan nan nan nan nan nan nan nan nan
nan nan nan nan nan nan nan nan nan nan nan nan 1 1 nan nan nan nan nan nan nan nan nan nan nan nan 0 0 1 1 2 3 2 2 2 2 2 2 1 1 1 nan nan nan nan nan nan nan nan nan nan 3 nan nan nan nan nan nan nan nan nan nan nan nan nan nan nan nan nan nan nan nan nan nan nan nan nan nan nan nan nan nan nan nan nan nan
CIN
nan nan nan nan nan nan nan nan nan nan nan nan nan nan nan nan nan nan nan nan nan nan nan nan nan nan nan nan nan nan nan nan nan nan nan nan nan nan -0 -0 -0 -0 -0 -0 -0 -0 -0 -0 -0 -0 -0 -0 -0 -0 -0 -0 -0 -0 -0 -0 -0 -0 -0 -0 -0 -0 -0 -0 -0 -0 -0 -0 -0 -0 -0 -0 -0 -0 -0 -0 -0 -0 -0 -0 -0 -0
nan nan nan nan nan nan nan nan nan nan nan nan nan nan nan nan nan nan nan nan nan nan nan nan nan nan nan nan nan nan nan nan nan nan nan nan nan nan nan nan nan -0 -0 -0 -0 -0 -0 -0 -0 -0 -0 -0 -0 -0 -0 -0 -0 -0 -0 -0 -0 -0 -0 -0 -0 -0 -0 -0 -0 -0 -0 -0 -0 -0 -0 -0 -0 -0 -0 -0 -0 -0 -0 -0 -0 -0
nan nan nan nan nan nan nan nan nan nan nan nan nan nan nan nan nan nan nan nan nan nan nan nan nan nan nan nan nan nan nan nan nan nan nan nan nan nan nan nan nan nan nan -0 -0 -0 -0 -0 -0 -0 -0 -0 -0 -0 -0 -0 -0 -0 -0 -0 -0 -0 -0 -0 -0 -0 -0 -0 -0 -0 -0 -0 -0 -0 -0 -0 -0 -0 -0 -0 -0 -0 -0 -0 -0 -0
nan nan nan nan nan nan nan nan nan nan nan nan nan nan nan nan nan nan nan nan nan nan nan nan nan nan nan nan nan nan nan nan nan nan nan nan nan nan nan -0 -0 -0 -0 -0 -0 -0 -0 -0 -0 -0 -0 -0 -0 -0 -0 -0 -0 -0 -0 -0 -0 -0 -0 -0 -0 -0 -0 -0 -0 -0 -0 -0 -0 -0 -0 -0 -0 -0 -0 -0 -0 -0 -0 -0 -0 -0
nan nan nan nan nan nan nan nan nan nan nan nan nan nan nan nan nan nan nan nan nan nan nan nan nan nan nan nan nan nan nan nan nan nan nan nan nan nan nan -0 -0 -0 -0 -0 -0 -0 -0 -0 -0 -0 -0 -0 -0 -0 -0 -0 -0 -0 -0 -0 -0 -0 -0 -0 -0 -0 -0 -0 -0 -0 -0 -0 -0 -0 -0 -0 -0 -0 -0 -0 -0 -0 -0 -0 -0 -0
nan nan nan nan nan nan nan nan nan nan nan nan nan nan nan nan nan nan nan nan nan nan nan nan nan nan nan nan nan nan nan nan nan nan nan nan nan nan nan -0 -0 -0 -0 -0 -0 -0 -0 -0 -0 -0 -0 -0 -0 -0 -0 -0 -0 -0 -0 -0 -0 -0 -0 -0 -0 -0 -0 -0 -0 -0 -0 -0 -0 -0 -0 -0 -0 -0 -0 -0 -0 -0 -0 -0 -0 -0
nan nan nan nan nan nan nan nan nan nan nan nan nan nan nan nan nan nan nan nan nan nan nan nan nan nan nan nan nan nan nan nan nan nan nan nan nan nan nan -0 -0 -0 -0 -0 -0 -0 -0 -0 -0 -0 -0 -0 -0 -0 -0 -0 -0 -0 -0 -0 -0 -0 -0 -0 -0 -0 -0 -0 -0 -0 -0 -0 -0 -0 -0 -0 -0 -0 -0 -0 -0 -0 -0 -0 -0 -0
nan nan nan nan nan nan nan nan nan nan nan nan nan nan nan nan nan nan nan nan nan nan nan nan nan nan nan nan nan nan nan nan nan nan nan nan nan nan nan nan nan nan nan nan nan nan nan nan nan -0 -0 -0 -0 -0 -0 -0 -0 -0 -0 -0 -0 -0 -0 -0 -0 -0 -0 -0 -0 -0 -0 -0 -0 -0 -0 -0 -0 -0 -0 -0 -0 -0 -0 -0 -0 -0
nan nan nan nan nan nan nan nan nan nan nan nan nan nan nan nan nan nan nan nan nan nan nan nan nan nan nan nan nan nan nan nan nan nan nan nan nan nan nan nan nan nan nan nan nan nan nan nan nan nan -0 -0 -0 -0 -0 -0 -0 -0 -0 -0 -0 -0 -0 -0 -0 -0 -0 -0 -0 -0 -0 -0 -0 -0 -0 -0 -0 -0 -0 -0 -0 -0 -0 -0 -0 -0
nan nan nan nan nan nan nan nan nan nan nan nan nan nan nan nan nan nan nan nan nan nan nan nan nan nan nan nan nan nan nan nan nan nan nan nan nan nan nan nan nan nan nan nan nan nan nan nan nan nan nan -0 -0 -0 -0 -0 -0 -0 -0 -0 -0 -0 -0 -0 -0 -0 -0 -0 -0 -0 -0 -0 -0 -0 -0 -0 -0 -0 -0 -0 -0 -0 -0 -0 -0 -0
nan nan nan nan nan nan nan nan nan nan nan nan nan nan nan nan nan nan nan nan nan nan nan nan nan nan nan nan nan nan nan nan nan nan nan nan nan nan nan nan nan nan nan nan nan nan nan nan nan nan nan nan nan nan nan nan nan nan nan -0 -0 -0 -0 -0 -0 -0 -0 -0 -0 -0 -0 -0 -0 -0 -0 -0 -0 -0 -0 -0 -0 -0 -0 -0 -0 -0
nan nan nan nan nan nan nan nan nan nan nan nan nan nan nan nan nan nan nan nan nan nan nan nan nan nan nan nan nan nan nan nan nan nan nan nan nan nan nan nan nan nan nan nan nan nan nan nan nan nan nan nan nan nan nan nan nan nan nan -0 -0 -0 -0 -0 -0 -0 -0 -0 -0 -0 -0 -0 -0 -0 -0 -0 -0 -0 -0 -0 -0 -0 -0 -0 -0 -0
nan nan nan nan nan nan nan nan nan nan nan nan nan nan nan nan nan nan nan nan nan nan nan nan nan nan nan nan nan nan nan nan nan nan nan nan nan nan nan nan nan nan nan nan nan nan nan nan nan nan nan nan nan nan nan nan nan nan nan -0 -0 -0 -0 -0 -0 -0 -0 -0 -0 -0 -0 -0 -0 -0 -0 -0 -0 -0 -0 -0 -0 -0 -0 -0 -0 -0
nan nan nan nan nan nan nan nan nan nan nan nan nan nan nan nan nan nan nan nan nan nan nan nan nan nan nan nan nan nan nan nan nan nan nan nan nan nan nan nan nan nan nan nan nan nan nan nan nan nan nan nan nan nan nan nan nan -0 -0 -0 -0 -0 -0 -0 -0 -0 -0 -0 -0 -0 -0 -0 -0 -0 -0 -0 -0 -0 -0 -0 -0 -0 -0 -0 -0 -0
nan nan nan nan nan nan nan nan nan nan nan nan nan nan nan nan nan nan nan nan nan nan nan nan nan nan nan nan nan nan nan nan nan nan nan nan nan nan nan nan nan nan nan nan nan nan nan nan nan nan nan nan nan nan nan nan nan -0 -0 -0 -0 -0 -0 -0 -0 -0 -0 -0 -0 -0 -0 -0 -0 -0 -0 -0 -0 -0 -0 -0 -0 -0 -0 -0 -0 -0
nan nan nan nan nan nan nan nan nan nan nan nan nan nan nan nan nan nan nan nan nan nan nan nan nan nan nan nan nan nan nan nan nan nan nan nan nan nan nan nan nan nan nan nan nan nan nan nan nan nan nan nan nan nan nan -0 -0 -0 -0 -0 -0 -0 -0 -0 -0 -0 -0 -0 -0 -0 -0 -0 -0 -0 -0 -0 -0 -0 -0 -0 -0 -0 -0 -0 -0 -0
nan nan nan nan nan nan nan nan nan nan nan nan nan nan nan nan nan nan nan nan nan nan nan nan nan nan nan nan nan nan nan nan nan nan nan nan nan nan nan nan nan nan nan nan nan nan nan nan nan nan nan nan nan nan nan -0 -0 -0 -0 -0 -0 -0 -0 -0 -0 -0 -0 -0 -0 -0 -0 -0 -0 -0 -0 -0 -0 -0 -0 -0 -0 -0 -0 -0 -0 -0
nan nan nan nan nan nan nan nan nan nan nan nan nan nan nan nan nan nan nan nan nan nan nan nan nan nan nan nan nan nan nan nan nan nan nan nan nan nan nan nan nan nan nan nan nan nan nan nan nan nan nan nan nan nan nan -0 -0 -0 -0 -0 -0 -0 -0 -0 -0 -0 -0 -0 -0 -0 -0 -0 -0 -0 -0 -0 -0 -0 -0 -0 -0 -0 -0 -0 -0 -0
nan nan nan nan nan nan nan nan nan nan nan nan nan nan nan nan nan nan nan nan nan nan nan nan nan nan nan nan nan nan nan nan nan nan nan nan nan nan nan nan nan nan nan nan nan nan nan nan nan nan nan nan nan nan -0 -0 -0 -0 -0 -0 -0 -0 -0 -0 -0 -0 -0 -0 -0 -0 -0 -0 -0 -0 -0 -0 -0 -0 -0 -0 -0 -0 -0 -0 -0 -0
nan nan nan nan nan nan nan nan nan nan nan nan nan nan nan nan nan nan nan nan nan nan nan nan nan nan nan nan nan nan nan nan nan nan nan nan nan nan nan nan nan nan nan nan nan nan nan nan nan nan nan nan nan nan -0 -0 -0 -0 -0 -0 -0 -0 -0 -0 -0 -0 -0 -0 -0 -0 -0 -0 -0 -0 -0 -0 -0 -0 -0 -0 -0 -0 -0 -0 -0 -0
nan nan nan nan nan nan nan nan nan nan nan nan nan nan nan nan nan nan nan nan nan nan nan nan nan nan nan nan nan nan nan nan nan nan nan nan nan nan nan nan nan nan nan nan nan nan nan nan nan nan nan nan nan nan -0 -0 -0 -0 -0 -0 -0 -0 -0 -0 -0 -0 -0 -0 -0 -0 -0 -0 -0 -0 -0 -0 -0 -0 -0 -0 -0 -0 -0 -0 -0 -0
nan nan nan nan nan nan -5 nan nan nan -24 nan nan nan nan nan nan nan nan nan nan nan nan nan nan nan nan nan nan nan nan nan nan nan nan nan nan nan nan nan nan nan nan nan nan nan nan nan nan nan nan nan nan nan -0 -0 -0 -0 -0 -0 -0 -0 -0 -0 -0 -0 -0 -0 -0 -0 -0 -0 -0 -0 -0 -0 -0 -0 -0 -0 -0 -0 -0 -0 -0 -0
nan nan nan nan nan nan nan nan nan nan -22 nan nan nan nan nan nan nan nan nan nan nan nan nan nan -17 -17 -11 nan nan nan nan nan nan nan nan nan nan nan nan nan nan nan nan nan nan nan nan nan nan nan nan nan nan -0 -0 -0 -0 -0 -0 -0 -0 -0 -0 -0 -0 -0 -0 -0 -0 -0 -0 -0 -0 -0 -0 -0 -0 -0 -0 -0 -0 -0 -0 -0 -0
nan nan nan nan nan nan nan nan nan nan nan nan nan nan nan nan nan nan nan nan nan nan -13 -10 -10 -8 -9 nan nan nan nan nan nan nan nan nan nan nan nan nan nan nan nan nan nan nan nan nan nan nan nan nan nan nan -0 -0 -0 -0 -0 -0 -0 -0 -0 -0 -0 -0 -0 -0 -0 -0 -0 -0 -0 -0 -0 -0 -0 -0 -0 -0 -0 -0 -0 -0 -0 -0
nan nan nan nan nan nan nan nan nan nan nan nan nan nan nan nan -15 -15 -1 -6 -6 -5 -4 -5 -5 nan nan nan nan nan nan nan nan nan nan nan nan nan nan nan nan nan nan nan nan nan nan nan nan nan nan nan nan nan nan -0 -0 -0 -0 -0 -0 -0 -0 -0 -0 -0 -0 -0 -0 -0 -0 -0 -0 -0 -0 -0 -0 -0 -0 -0 -0 -0 -0 -0 -0 -0
nan -21 nan nan nan -9 -3 -4 -8 -8 -17 nan nan nan nan -9 -6 -6 -9 -6 -6 -10 nan nan nan nan nan nan nan nan nan nan nan nan nan nan nan nan nan nan nan nan nan nan nan nan nan nan nan nan nan nan nan nan nan -0 -0 -0 -0 -0 -0 -0 -0 -0 -0 -0 -0 -0 -0 -0 -0 -0 -0 -0 -0 -0 -0 -0 -0 -0 -0 -0 -0 -0 -0 -0
-0 -0 -0 -0 -0 -0 -0 -0 -0 -0 -0 -0 -8 -8 -12 -15 nan nan nan nan nan nan nan nan nan nan nan nan nan nan nan nan nan nan nan nan nan nan nan nan nan nan nan nan nan nan nan nan nan nan nan nan nan nan nan nan nan -0 -0 -0 -0 -0 -0 -0 -0 -0 -0 -0 -0 -0 -0 -0 -0 -0 -0 -0 -0 -0 -0 -0 -0 -0 -0 -0 -0 -0
-0 -0 -0 -0 -0 -0 -0 -0 -0 -0 -0 -0 -0 -0 -4 nan nan nan nan nan nan nan nan nan nan nan nan nan nan nan nan nan nan nan nan nan nan nan nan nan nan nan nan nan nan nan nan nan nan nan nan nan nan nan nan nan nan -0 -0 -0 -0 -0 -0 -0 -0 -0 -0 -0 -0 -0 -0 -0 -0 -0 -0 -0 -0 -0 -0 -0 -0 -0 -0 -0 -0 -6
-2 -0 -0 -0 -0 -0 -0 -0 -0 -0 -0 -0 -0 -0 -2 nan nan nan nan nan nan nan nan nan nan nan nan nan nan nan nan nan nan nan nan nan nan nan nan nan nan nan nan nan nan nan nan nan nan nan nan nan nan nan nan nan nan nan -0 -0 -0 -0 -0 -0 -0 -0 -0 -0 -0 -0 -0 -0 -0 -0 -0 -0 -0 -0 -0 -0 -0 -0 -0 -0 -0 -9
nan nan nan -8 -8 -6 nan nan nan nan -0 -0 -0 -0 -1 nan nan nan nan nan nan nan nan nan nan nan nan nan nan nan nan nan nan nan nan nan nan nan nan nan nan nan nan nan nan nan nan nan nan nan nan nan nan nan nan nan nan nan nan -0 -0 -0 -0 -0 -0 -0 -0 -0 -0 -0 -0 -0 -0 -0 -0 -0 -0 -0 -0 -0 -0 -0 -0 -10 -10 -14
nan nan nan nan nan nan nan nan nan nan nan -0 -0 -0 nan nan nan nan nan nan nan nan nan nan nan nan nan nan nan nan nan nan nan nan nan nan nan nan nan nan nan nan nan nan nan nan nan nan nan nan nan nan nan nan nan nan nan nan nan nan nan nan -0 -0 -0 -0 -0 -0 -0 -0 -0 -0 -0 -0 -0 -0 -0 -0 -0 -0 -0 -0 -7 -15 -15 -16
nan nan nan nan nan nan nan nan nan nan nan nan nan nan nan nan nan nan nan nan nan nan nan nan nan nan -3 -2 nan nan nan nan nan nan nan nan nan nan nan nan nan nan nan nan nan nan nan nan nan nan nan nan nan nan nan nan nan nan nan nan nan nan nan nan nan -0 -0 -0 -0 -0 -0 -0 -0 -0 -0 -0 -0 -0 -0 -0 -0 -0 -3 -13 -13 -11
nan nan nan nan nan nan nan nan nan nan nan nan nan nan nan nan nan nan nan nan nan nan nan nan nan nan nan nan nan nan nan nan nan nan nan nan nan nan nan nan nan nan nan nan nan nan nan nan nan nan nan nan nan nan nan nan nan nan nan nan nan nan nan nan nan nan nan nan -1 -1 -0 -0 -0 -0 -0 -0 -0 -0 -0 -0 -0 -0 -0 -12 -12 -11
nan nan nan nan nan nan nan nan nan nan nan nan nan nan nan nan nan nan nan nan nan nan nan nan nan nan nan nan nan nan nan nan nan nan nan nan nan nan nan nan nan nan nan nan nan nan nan nan nan nan nan nan nan nan nan nan nan nan nan nan nan nan nan nan nan nan nan nan nan nan nan -8 -0 -0 -0 -0 -0 -0 -0 -0 -0 -0 -0 -0 -0 -8
nan nan nan nan nan nan nan nan nan nan nan nan nan nan nan nan nan nan nan nan nan nan nan nan nan nan nan nan nan nan nan nan nan nan nan nan nan nan nan nan nan nan nan nan nan nan nan nan nan -3 nan nan nan nan nan nan nan nan nan nan nan nan nan nan nan nan nan nan nan nan nan nan nan nan -10 -0 -0 -0 -0 -0 -0 -0 -0 -0 -0 -0
nan nan nan nan nan nan nan nan nan nan nan nan nan nan nan nan nan nan nan nan nan nan nan nan nan nan nan nan nan nan nan nan nan nan nan nan nan nan nan nan nan nan nan nan nan nan nan nan nan -2 -2 nan nan nan nan nan nan nan nan nan nan nan nan nan nan nan nan nan nan nan nan nan nan nan nan -0 -0 -0 -0 -0 -0 -0 -0 -0 -0 -0
nan nan nan nan nan nan nan nan nan nan nan nan nan nan nan nan nan nan nan nan nan nan nan nan nan nan nan nan nan nan nan nan nan nan nan nan nan nan nan nan nan nan nan nan nan nan nan nan nan nan nan nan nan nan nan nan nan nan nan nan nan nan nan nan nan nan nan nan nan nan nan nan nan nan -8 -0 -0 -0 -0 -0 -0 -0 -0 -0 -0 -0
nan nan nan nan nan nan nan nan nan nan nan nan nan nan nan nan nan nan nan nan nan nan nan nan nan nan nan nan nan nan nan nan nan nan nan nan nan nan nan nan nan nan nan nan nan nan nan nan nan nan nan nan -3 -3 -4 nan nan nan nan nan nan nan nan nan nan nan nan nan -7 -7 -4 -9 nan nan -17 -12 -18 -18 -14 -13 -13 -0 -0 -0 -0 -0
nan nan nan nan nan nan nan nan nan nan nan nan nan nan nan nan nan nan nan nan nan nan nan nan nan nan nan nan nan nan nan nan nan nan nan nan nan nan nan nan nan nan nan nan nan nan nan nan nan nan nan nan nan nan nan nan nan nan nan nan nan nan nan nan nan nan nan nan -6 -6 -10 nan nan nan nan nan nan nan nan nan nan -7 -7 -13 -13 -0
nan nan nan nan nan nan nan nan nan nan nan nan nan nan nan nan nan nan nan nan nan nan nan nan nan nan nan nan nan nan nan nan nan nan nan nan nan nan nan nan nan nan nan nan nan nan nan nan nan -7 -3 nan nan nan nan nan nan nan -3 nan nan nan nan nan nan nan nan nan nan nan nan nan nan nan nan -24 nan nan nan nan nan nan -12 nan nan nan
nan nan nan nan nan nan nan nan nan nan nan nan nan nan nan nan nan nan nan nan nan nan nan nan nan nan nan nan nan nan nan nan nan nan nan nan nan nan nan nan nan nan nan nan nan nan -11 nan nan -6 -7 -8 nan nan nan nan nan -0 -0 nan nan nan nan -9 -9 nan nan nan nan nan nan nan -10 -10 -18 -16 nan nan nan nan nan nan nan nan nan nan
nan nan nan nan nan nan nan nan nan nan nan nan nan nan nan nan nan nan nan nan nan nan nan nan nan nan nan nan nan nan nan nan nan nan nan nan nan nan nan nan nan nan nan nan nan -15 -9 -5 -5 -6 -7 nan nan nan nan nan nan -3 -1 nan nan nan -5 nan nan nan nan nan nan nan -7 nan nan nan nan nan nan nan nan nan nan -12 -5 nan nan nan
nan nan nan nan nan nan nan nan nan nan nan nan nan nan nan nan nan nan nan nan nan nan nan nan nan nan nan nan nan nan nan nan nan nan nan nan nan nan nan nan nan nan nan nan nan -9 -8 -5 -5 nan nan nan nan nan nan nan nan nan nan nan nan nan nan nan nan nan nan nan nan nan nan nan nan nan nan nan nan nan nan nan nan -0 -0 nan nan nan
nan nan nan nan nan nan nan nan nan nan nan nan nan nan nan nan nan nan nan nan nan nan nan nan nan nan nan nan nan nan nan nan nan nan nan nan nan nan nan nan nan nan nan nan nan nan nan nan nan nan nan nan nan nan nan nan nan nan nan nan nan nan nan nan nan nan nan nan nan nan nan nan nan nan nan nan nan nan nan nan nan nan -7 nan nan nan
nan nan nan nan nan nan nan nan nan nan nan nan nan nan nan nan nan nan nan nan nan nan nan nan nan nan nan nan nan nan nan nan nan nan nan nan -19 -19 -41 nan nan nan nan nan nan nan nan nan nan nan nan nan nan nan nan nan nan nan nan -4 -4 nan nan nan nan nan nan nan nan nan nan nan nan nan nan nan nan nan nan nan nan nan nan nan nan nan
nan nan nan nan nan nan nan nan nan nan nan nan nan nan nan nan nan nan nan nan nan nan nan nan nan -1 nan nan nan nan nan nan nan nan nan nan nan nan nan nan nan nan nan nan nan nan nan nan nan nan nan nan nan nan nan nan nan nan nan nan nan nan nan nan nan nan nan nan nan nan nan nan nan nan nan nan nan nan nan nan nan nan nan nan nan nan
nan nan nan nan nan nan nan nan nan nan nan nan nan nan nan nan nan nan nan nan nan nan nan nan nan -2 -2 nan nan nan nan nan nan nan nan nan nan nan nan nan nan nan nan nan nan nan nan nan nan nan nan nan nan nan nan nan nan nan nan nan nan nan nan nan nan nan nan nan nan nan nan nan nan nan nan nan nan nan nan nan nan nan nan nan nan nan
nan nan nan nan nan nan nan nan nan nan nan nan nan nan nan nan nan nan nan nan nan nan nan nan nan -3 nan nan -5 -5 nan -6 -8 -8 -10 nan nan nan nan nan nan nan nan nan nan nan nan nan nan nan nan nan nan nan nan nan nan nan nan nan nan nan nan nan nan nan nan nan nan nan nan nan nan nan nan nan nan nan nan nan nan nan nan nan nan nan
nan nan nan nan nan nan nan nan nan nan nan nan nan nan nan nan -0 -0 nan nan nan nan nan nan nan nan nan nan nan nan -6 -6 -8 -8 -11 -14 -16 -16 nan nan nan nan nan nan nan nan nan nan nan nan nan nan nan nan nan nan nan nan nan nan nan nan nan nan nan nan nan nan nan nan nan nan nan nan nan nan nan nan nan nan nan nan nan nan nan nan
nan nan nan nan nan nan nan nan nan nan nan nan -10 -10 nan nan nan nan nan nan nan nan nan nan nan nan -4 nan -8 -8 -8 -9 -9 -9 -12 -14 -15 -15 -25 nan nan nan nan nan nan nan nan nan nan nan -27 nan nan nan nan nan nan nan nan nan nan nan nan nan nan nan nan nan nan nan nan nan nan nan nan nan nan nan nan nan nan nan nan nan nan nan
nan nan nan nan nan nan nan nan nan nan nan nan -2 -2 nan nan nan nan nan nan nan nan nan nan nan nan -4 -5 -6 -6 -6 -7 -8 -8 -8 -13 -15 -15 -14 -14 -14 nan nan nan nan nan nan nan nan nan nan -8 nan nan nan nan nan nan nan nan nan nan nan nan nan nan nan nan nan nan nan nan nan nan nan nan nan nan nan nan nan nan nan nan nan nan
Wind_Speed
1 1 1 1 1 2 1 1 1 1 0 1 2 2 2 2 1 1 1 1 1 1 1 1 2 2 4 6 7 8 9 10 11 12 13 13 14 14 15 15 15 15 16 16 16 16 16 16 16 17 17 17 18 18 18 19 19 19 20 20 20 20 20 20 20 20 20 20 20 20 20 20 20 20 20 21 21 21 21 22 22 22 22 22 23 23
1 1 1 2 2 2 0 1 1 1 1 1 1 2 2 2 2 2 1 1 1 1 1 1 2 2 3 5 7 9 10 11 12 13 14 14 14 15 15 15 15 16 16 16 16 16 16 16 16 17 17 17 17 18 18 19 19 19 19 20 20 20 20 20 20 20 20 20 20 20 20 20 20 20 21 21 21 22 22 22 22 22 23 23 23 23
1 1 1 1 2 1 0 1 0 0 1 1 1 1 1 2 2 2 2 1 1 1 1 1 1 2 3 4 6 8 10 12 13 14 14 15 15 15 15 15 15 15 15 15 15 15 16 16 16 16 16 17 17 17 18 18 18 19 19 19 19 19 20 20 20 20 20 20 20 20 20 20 20 21 21 21 22 22 22 22 22 23 23 23 23 23
1 0 1 1 1 1 0 0 0 0 1 1 1 1 1 1 1 2 2 2 2 2 2 1 1 2 2 3 5 8 11 12 13 14 15 15 15 15 14 14 14 14 14 14 14 14 15 15 15 15 16 16 17 17 17 18 18 18 18 19 19 19 19 19 19 19 19 20 20 20 20 20 21 21 21 22 22 22 22 22 22 22 23 23 23 23
0 0 0 1 1 1 1 1 1 1 1 0 1 1 1 1 1 2 2 2 2 3 3 2 1 2 2 2 4 7 11 13 14 14 15 14 14 14 14 13 13 13 13 13 13 14 14 15 15 15 16 16 17 17 18 18 18 18 19 19 19 19 19 19 19 19 20 20 20 20 20 21 21 21 21 22 22 22 22 22 22 22 22 23 23 23
1 0 0 1 1 1 1 1 1 1 1 1 1 1 1 1 1 2 2 2 2 2 2 2 2 2 2 3 5 8 11 13 14 14 14 14 13 13 13 13 13 13 13 13 13 14 14 15 15 16 17 17 18 18 18 19 19 19 19 19 19 19 19 20 20 20 20 20 20 20 21 21 21 21 21 21 21 22 22 22 22 22 22 23 23 23
0 1 1 1 1 1 1 1 1 1 2 2 2 2 1 1 1 1 2 2 2 2 2 2 2 2 2 3 5 7 9 11 12 13 13 13 13 12 12 12 13 13 13 14 14 15 15 16 16 17 17 18 18 18 19 19 19 19 19 19 19 19 19 20 20 20 20 20 20 20 20 20 20 20 21 21 21 21 21 22 22 22 22 23 23 23
0 1 2 2 1 1 1 1 1 2 2 1 1 2 2 2 2 2 2 2 2 2 2 2 2 2 2 3 4 5 6 7 8 8 9 10 10 11 11 12 13 13 14 14 15 16 16 17 17 17 18 18 18 18 18 18 18 18 18 18 18 19 19 19 19 19 19 20 20 20 20 20 20 20 20 20 20 21 21 21 22 22 22 23 23 24
1 1 1 1 1 1 1 1 1 1 1 1 1 1 1 2 2 2 2 2 2 1 1 1 2 2 2 2 2 3 5 5 5 5 6 5 6 7 9 11 12 13 14 15 16 17 17 17 17 17 18 18 18 17 17 17 17 17 17 17 17 18 18 18 18 18 19 19 19 19 19 19 20 20 20 20 20 20 21 21 22 22 23 23 23 24
1 1 1 1 1 1 0 1 1 1 1 1 1 1 1 0 1 2 3 3 2 2 1 1 2 3 3 2 2 2 4 5 6 7 7 7 7 8 9 10 11 12 14 15 16 17 17 17 17 17 17 17 17 17 17 17 17 17 17 17 17 17 17 18 18 18 18 19 19 19 19 19 19 20 20 20 20 20 21 21 22 22 23 23 24 24
2 2 1 1 1 1 0 1 1 1 1 1 1 1 1 1 0 1 2 3 3 2 2 1 2 2 3 3 2 2 2 3 4 6 7 8 9 10 10 10 11 12 14 15 15 16 16 17 17 17 17 17 17 17 16 16 16 17 17 17 17 18 18 18 18 18 18 19 19 19 19 19 20 20 20 20 21 21 21 22 22 22 23 24 24 25
2 2 1 1 1 1 1 1 1 1 2 2 2 2 1 0 1 1 1 3 3 3 3 2 2 2 2 3 3 2 2 2 2 3 4 5 5 6 7 7 8 10 11 12 13 14 15 16 16 16 16 16 16 16 16 16 17 17 17 18 18 18 18 18 18 19 19 19 19 19 20 20 20 21 21 21 21 22 22 22 22 23 23 24 24 25
2 1 1 1 1 1 1 1 2 2 2 1 1 1 2 1 1 1 1 2 3 3 3 3 2 2 2 2 2 1 1 2 2 3 3 3 3 3 3 4 4 5 6 7 7 8 12 13 14 14 15 15 16 16 17 17 17 18 18 18 19 19 19 19 19 19 20 20 20 20 21 21 21 21 21 22 22 22 22 23 23 23 23 24 24 25
1 1 1 1 1 1 1 1 1 1 1 1 1 2 2 1 0 0 1 2 2 2 2 3 3 3 2 2 2 1 1 1 2 3 3 3 3 3 2 3 4 4 4 4 4 6 9 10 10 10 13 14 15 15 16 16 17 18 19 19 19 19 20 20 20 20 20 21 21 21 21 21 21 22 22 22 22 23 23 23 23 23 23 24 24 24
0 0 0 0 1 1 1 1 1 1 2 2 2 1 1 0 0 0 1 2 2 2 2 3 3 3 3 2 1 1 1 1 2 3 4 4 3 2 2 3 3 4 4 4 5 5 7 7 6 7 8 10 12 13 15 16 18 19 19 20 20 20 20 20 21 21 21 21 21 21 21 21 22 22 22 22 22 23 23 23 23 23 23 23 24 24
1 1 1 1 1 1 1 1 2 2 2 1 1 1 0 1 1 1 1 2 2 3 3 3 3 3 3 2 1 1 2 1 2 3 5 5 4 2 2 2 3 4 4 4 4 5 5 5 5 6 7 10 13 16 18 18 19 20 20 20 21 21 21 21 21 21 21 21 21 21 21 21 22 22 22 22 22 22 22 23 23 23 23 23 24 24
1 1 1 1 1 2 2 2 2 2 1 1 1 1 1 1 1 1 1 2 2 2 2 3 3 3 3 2 2 2 2 1 2 4 5 5 4 3 2 2 3 4 4 4 4 4 4 5 5 5 6 11 14 17 19 19 20 20 21 21 21 21 21 21 21 21 21 21 21 21 21 21 21 22 22 22 22 22 22 22 23 23 23 23 24 24
1 2 2 2 2 2 2 1 1 1 1 1 1 1 1 2 2 2 2 2 2 2 3 2 2 3 3 3 3 2 3 2 3 5 6 6 5 3 2 2 3 4 4 4 4 4 4 5 5 6 8 14 17 19 20 20 21 21 21 21 21 21 21 21 21 21 21 21 21 21 21 21 21 21 22 22 22 22 22 23 23 23 23 24 24 24
2 2 2 2 2 2 2 2 2 2 1 1 1 1 1 2 2 2 3 2 2 2 3 3 3 3 3 4 4 3 3 2 3 5 6 6 5 4 2 2 3 4 4 4 4 4 5 5 7 9 13 16 18 19 20 21 21 21 21 21 21 21 21 21 21 21 21 21 21 21 21 21 21 22 22 22 22 22 23 23 23 23 24 24 24 25
2 2 2 2 2 1 2 2 2 2 2 2 2 2 2 2 2 2 3 2 2 2 2 3 4 4 4 4 4 2 2 2 3 4 5 6 5 4 2 2 3 4 4 5 4 4 4 5 6 9 13 15 17 19 20 20 21 21 21 21 21 21 21 21 21 21 21 21 21 21 21 22 22 22 22 22 23 23 23 24 24 24 25 25 25 25
2 2 2 2 1 1 1 2 3 3 3 2 2 2 2 2 2 3 3 2 2 2 2 3 4 4 4 4 4 2 1 1 2 3 4 4 4 4 2 2 2 4 5 5 4 4 4 4 5 6 9 14 17 19 20 20 21 21 21 21 21 21 21 21 21 21 21 21 22 22 22 22 22 22 23 23 23 24 24 24 25 25 25 26 26 26
1 1 2 2 2 2 2 2 3 4 4 3 2 2 2 2 2 3 3 3 3 3 3 4 4 4 4 4 4 3 1 1 2 3 3 4 4 4 2 1 2 4 5 5 4 4 4 4 5 6 10 14 17 19 20 20 20 21 21 21 21 21 21 21 21 21 22 22 22 22 22 23 23 23 23 24 24 24 25 25 25 26 26 26 26 27
2 2 2 2 3 3 3 3 3 4 4 3 3 3 2 2 2 3 3 3 3 3 4 4 4 4 4 4 4 3 2 2 2 2 2 4 5 4 2 2 3 4 5 5 5 5 5 5 5 7 10 15 17 18 19 20 20 20 20 21 21 21 21 21 21 22 22 22 22 23 23 23 24 24 24 25 25 25 26 26 26 26 26 27 27 27
2 2 3 3 3 3 3 3 3 3 3 3 3 3 3 3 3 3 2 2 3 3 3 3 4 4 4 4 4 3 2 2 2 1 1 3 4 4 3 2 4 5 6 5 5 5 6 6 6 6 7 12 15 17 18 19 19 19 20 20 20 21 21 21 22 22 22 23 23 23 24 24 24 25 25 25 26 26 26 26 26 27 27 27 27 28
2 3 3 4 5 6 5 5 5 4 4 3 3 3 3 4 4 4 3 3 2 3 3 4 4 4 4 4 3 3 2 2 2 2 1 3 4 4 3 3 3 5 6 5 5 5 6 7 7 6 6 9 12 15 17 18 18 19 19 20 20 20 21 21 22 22 23 23 24 24 24 25 25 25 26 26 26 26 26 27 27 27 27 28 28 28
4 4 5 6 7 8 8 7 7 6 5 3 3 3 3 3 3 2 2 2 2 3 3 4 5 5 4 3 3 3 2 1 2 2 2 3 4 4 3 2 3 4 6 6 6 6 7 8 7 6 5 6 9 12 15 16 17 18 19 19 20 21 21 22 22 23 23 24 24 24 25 25 25 25 26 26 26 26 26 27 27 27 28 28 28 27
8 8 9 9 8 6 5 5 5 5 5 5 4 4 2 1 2 2 3 3 2 2 3 4 5 5 4 3 3 3 2 1 1 2 2 2 3 4 3 3 3 5 7 7 6 7 8 9 8 7 5 5 6 8 12 14 16 17 18 19 20 21 22 22 23 23 24 24 24 25 25 25 25 25 26 26 26 26 26 27 27 27 27 26 24 22
7 8 8 7 6 6 6 6 7 7 7 8 9 8 5 3 2 3 4 2 2 2 3 4 5 5 4 3 3 3 3 2 2 2 1 1 2 3 3 3 4 5 6 6 7 7 8 8 7 6 5 5 5 6 9 12 14 16 18 19 20 21 22 22 23 23 23 24 24 24 25 25 25 25 25 26 26 26 26 27 27 26 25 22 17 14
6 6 6 5 5 5 5 5 6 6 7 8 9 8 5 2 2 3 3 2 2 2 3 4 5 5 4 4 4 3 3 3 2 1 2 0 2 3 3 4 4 4 5 6 6 6 6 5 4 4 4 5 5 5 6 9 11 13 15 17 19 20 21 21 22 23 23 23 24 24 24 25 25 25 25 25 26 26 26 27 26 24 19 16 13 12
4 4 4 3 3 3 3 3 3 4 6 7 8 7 5 2 2 3 3 2 2 2 3 4 4 4 4 4 4 3 3 2 2 1 1 1 2 4 3 4 4 4 4 5 6 6 5 4 3 3 3 5 6 6 6 7 8 8 9 12 14 16 18 20 21 22 22 23 23 24 24 24 25 25 25 25 26 26 26 27 25 20 14 12 11 11
2 2 2 2 2 2 2 2 2 3 5 6 6 6 4 2 2 3 3 3 3 3 3 3 4 4 4 3 3 3 2 2 2 2 1 2 3 3 4 4 4 4 3 3 4 6 6 5 4 3 4 6 7 7 7 7 7 7 6 7 9 11 15 17 19 20 21 22 22 23 24 24 25 25 25 25 25 26 26 26 24 19 13 11 11 11
3 2 2 2 2 2 2 2 2 2 3 4 4 4 4 3 3 3 3 3 3 3 3 3 3 3 3 4 4 4 3 2 2 2 2 2 3 3 3 4 4 4 3 2 3 4 6 6 5 5 5 6 7 7 8 8 7 6 6 6 6 8 13 15 16 17 17 19 20 22 23 24 24 25 25 25 25 25 26 26 24 19 13 11 11 12
3 2 2 1 1 2 2 2 2 2 3 3 3 3 3 3 3 3 3 3 3 3 3 2 3 4 4 4 5 5 4 3 3 4 4 3 3 3 3 4 4 4 4 3 3 4 5 6 6 7 7 6 6 7 7 7 7 6 6 6 6 7 10 12 12 13 13 15 16 18 20 21 22 23 24 24 24 25 25 25 24 21 16 13 12 12
2 2 1 1 2 2 2 2 2 3 3 3 3 3 3 3 3 3 3 3 3 3 3 3 3 4 4 5 5 5 5 4 4 4 4 3 3 3 4 4 4 5 5 4 4 4 5 6 7 7 7 7 6 6 6 7 7 6 5 5 6 6 8 9 10 10 11 12 12 13 14 15 17 19 20 21 22 23 23 24 25 24 22 17 14 13
2 2 2 2 2 2 2 3 3 3 3 3 3 4 3 3 3 3 3 3 3 3 3 3 3 3 4 4 5 5 5 4 4 4 4 3 3 4 4 4 4 5 5 5 5 5 5 6 8 8 8 8 7 6 5 5 6 6 5 6 6 7 7 8 9 10 11 11 11 11 10 11 12 13 15 17 19 21 23 24 25 26 26 24 20 17
1 1 2 2 2 2 2 3 3 3 3 3 3 3 3 3 3 3 3 3 3 4 4 4 4 4 4 4 5 6 6 5 5 5 5 4 4 4 4 4 4 5 5 6 6 6 6 7 8 9 9 9 8 7 5 5 5 6 6 7 7 8 8 8 8 9 10 10 11 10 10 10 10 11 12 16 20 22 24 25 26 26 27 27 25 23
1 2 2 2 2 2 2 2 2 3 3 3 3 3 3 3 4 4 4 4 4 4 4 4 4 5 5 5 5 6 6 5 5 6 6 5 4 4 4 4 5 5 5 6 6 7 7 8 8 9 8 8 8 7 7 7 7 7 7 7 8 8 8 8 8 9 9 10 11 11 11 11 11 12 12 17 19 21 22 23 24 24 26 26 27 27
2 2 2 2 2 2 2 2 2 3 3 3 3 3 4 4 4 4 4 4 4 4 4 4 4 5 7 7 7 7 7 7 7 7 7 6 5 5 5 5 6 6 6 6 6 7 7 8 9 9 8 8 8 9 9 9 9 9 8 8 8 8 8 8 8 8 9 10 11 12 12 12 12 11 12 13 13 13 14 15 16 18 21 22 24 26
2 2 2 2 2 3 3 3 3 3 3 3 3 3 3 4 4 4 4 4 4 5 5 5 4 5 6 7 8 8 8 8 8 8 8 6 5 5 5 6 6 6 6 6 6 6 7 7 7 8 8 9 9 9 9 9 9 10 10 10 9 8 8 8 8 9 9 10 11 12 12 11 11 10 11 10 10 10 11 11 12 13 15 15 17 20
3 3 3 3 3 3 3 4 3 3 3 3 3 3 3 3 3 3 3 4 4 4 4 5 4 4 5 6 6 7 8 7 7 7 6 5 5 5 5 6 6 6 6 6 6 6 7 7 8 8 9 9 9 10 9 9 10 10 12 10 9 8 8 9 9 9 9 10 10 11 11 10 10 10 11 10 10 10 11 10 11 11 12 12 12 14
4 3 3 3 3 3 3 4 3 3 2 2 2 2 2 2 3 3 3 3 3 3 3 3 3 4 4 4 5 6 7 7 7 7 6 6 6 6 5 6 6 6 6 6 6 6 6 7 8 9 9 9 10 11 11 11 12 13 13 11 10 10 10 10 10 10 9 9 10 10 11 12 12 12 11 11 11 11 11 11 12 12 12 11 11 12
4 4 3 3 3 3 3 2 2 2 1 1 1 1 2 2 2 2 2 2 2 3 2 2 3 3 4 4 4 5 5 6 7 7 7 8 8 7 6 6 6 5 6 6 6 6 6 7 8 9 9 9 10 11 11 11 12 12 11 11 12 12 12 10 9 8 9 9 10 10 12 12 11 11 12 12 11 11 11 12 13 14 14 13 12 12
4 3 3 3 2 2 2 2 2 1 1 1 1 2 2 2 2 3 3 3 3 3 3 3 3 3 4 4 4 4 4 5 6 7 7 7 8 8 7 7 6 6 5 5 6 6 6 7 8 9 9 9 10 11 12 12 12 11 11 11 11 11 8 8 8 8 9 10 10 10 10 11 11 11 11 12 11 11 11 13 15 16 16 14 13 13
3 3 3 2 2 2 1 1 1 1 1 1 2 2 2 2 3 3 3 3 3 3 3 3 3 3 4 4 4 4 3 4 4 5 6 7 7 7 7 6 6 5 4 4 5 6 7 8 8 9 9 9 10 11 11 12 11 11 10 11 11 10 9 9 10 10 11 11 10 10 10 10 11 11 12 12 12 12 12 12 12 13 14 14 13 14
3 2 2 2 1 1 2 2 2 2 1 2 2 2 2 2 3 3 2 2 2 2 2 3 3 3 4 4 4 4 4 4 3 4 4 6 7 8 6 5 4 4 4 4 5 5 7 8 9 9 8 9 9 10 11 12 12 12 12 11 11 11 11 11 11 11 11 11 11 11 11 10 10 11 12 12 12 12 12 12 13 13 13 13 13 14
2 2 2 1 1 2 3 2 2 2 2 2 2 2 2 2 2 2 2 2 2 2 2 2 3 3 4 5 5 5 5 4 4 4 3 4 4 4 4 4 4 4 4 4 5 6 6 7 8 9 9 9 10 10 11 11 11 11 11 11 11 11 11 11 11 11 11 11 11 11 11 11 11 11 12 13 13 13 12 12 13 13 14 13 13 14
2 2 2 2 2 2 2 2 2 2 2 2 2 2 2 2 2 2 2 2 2 2 3 3 3 4 5 5 5 5 5 6 5 5 4 4 3 3 3 3 4 4 4 5 6 7 7 8 8 9 9 10 10 11 11 10 10 11 11 11 11 11 11 11 11 11 11 11 11 11 11 11 11 12 13 13 14 13 13 12 13 13 13 13 14 14
3 3 2 2 2 2 2 2 2 2 2 2 3 3 2 3 3 3 2 2 2 2 3 3 4 4 5 5 5 5 6 6 6 6 6 5 4 4 3 3 4 4 5 6 7 8 8 8 8 9 9 9 10 11 11 10 10 10 10 11 11 11 12 12 11 11 10 11 11 11 9 9 10 12 13 14 14 14 14 13 13 13 13 13 13 14
3 3 3 2 2 2 2 2 2 2 2 3 3 3 2 3 4 4 3 2 2 2 3 4 4 5 5 5 5 5 6 6 6 6 6 5 5 5 4 4 4 4 5 5 5 6 7 7 8 9 9 9 10 10 11 11 10 9 9 10 10 11 12 12 11 11 10 11 11 11 10 9 10 11 12 14 15 15 16 15 14 14 13 12 13 13
3 3 2 2 2 2 2 2 2 3 3 3 3 3 2 2 3 3 2 2 2 2 3 4 5 5 5 5 5 5 6 6 6 6 6 5 5 5 5 5 5 6 6 5 5 5 5 5 6 7 9 10 10 10 10 10 10 9 9 9 9 10 11 12 11 11 11 11 12 12 11 11 10 10 11 12 14 16 17 16 16 15 13 12 12 13
3 3 2 2 2 2 2 2 3 3 3 3 3 3 3 2 2 2 2 2 2 3 3 4 4 5 6 6 6 6 6 6 6 6 6 5 5 5 5 5 6 6 7 7 6 6 5 5 5 5 6 9 10 9 7 8 8 9 9 9 9 9 10 11 11 12 12 12 12 11 12 11 11 10 10 11 13 15 16 16 16 16 15 13 13 14
Wind_Direction
306 312 352 29 69 88 61 45 70 89 328 325 329 333 333 334 321 292 272 248 229 239 258 266 278 292 302 307 311 313 314 314 312 311 310 308 307 306 304 302 300 299 297 296 295 294 294 293 292 291 290 289 288 288 287 286 286 285 285 284 284 283 283 283 283 283 283 283 283 284 285 285 286 286 286 285 284 283 281 280 279 278 277 276 275 274
333 335 5 30 57 82 83 27 65 106 156 285 314 332 342 337 328 316 308 263 223 229 254 271 285 295 295 298 307 312 314 314 313 312 311 310 308 307 305 302 300 299 297 296 295 294 294 293 292 292 291 290 289 288 287 286 285 285 285 284 284 284 284 284 284 284 284 285 285 286 287 287 287 287 286 285 283 282 281 280 279 278 277 276 275 274
347 355 1 22 48 70 86 9 18 110 187 246 287 326 347 336 323 315 315 313 304 285 268 272 283 289 285 287 302 311 313 314 313 312 311 310 309 307 305 303 301 299 298 296 295 295 294 293 292 292 291 290 289 288 287 286 286 286 285 285 285 285 285 285 285 285 285 286 286 287 287 287 286 286 285 283 282 281 281 280 279 278 277 276 276 275
349 13 339 360 24 46 88 354 326 285 230 247 279 330 4 323 300 294 299 310 313 310 299 284 276 275 278 281 297 307 312 313 313 312 312 311 310 308 306 304 302 301 299 298 297 296 295 295 295 294 294 293 292 291 290 290 289 289 288 288 288 287 287 287 287 287 287 287 287 287 286 286 285 284 284 283 282 282 281 280 280 279 278 278 277 277
308 288 316 3 8 360 343 347 320 294 274 299 336 351 1 315 294 295 307 318 319 313 306 298 280 267 270 279 295 304 309 311 312 312 312 311 310 309 307 306 305 304 302 301 301 300 299 299 299 299 298 297 296 295 294 294 293 292 292 291 291 290 290 290 289 289 289 288 288 287 286 286 285 284 283 283 282 282 282 281 281 280 280 279 279 278
266 284 355 35 17 344 349 354 352 350 354 355 357 355 348 320 314 316 323 329 325 317 309 302 287 271 268 274 291 300 306 309 310 311 311 311 310 310 309 309 308 307 306 306 305 304 304 303 303 302 301 300 299 298 297 296 295 294 293 293 293 292 292 291 291 290 289 289 288 287 286 286 285 284 284 283 283 282 282 282 281 281 280 280 279 279
279 324 18 23 4 343 1 3 6 10 16 4 357 353 345 337 330 324 315 318 318 314 309 302 295 284 275 273 285 294 302 305 307 308 309 309 310 310 311 311 311 311 310 309 308 307 306 305 304 303 302 301 300 299 297 296 295 295 294 294 293 293 292 291 291 290 289 288 288 287 286 286 285 284 284 283 283 282 282 282 281 281 280 280 279 279
98 9 20 22 13 4 7 9 16 23 31 26 14 357 344 340 334 326 314 313 310 307 307 306 303 295 281 274 279 286 292 297 299 300 302 304 306 309 311 312 312 312 311 310 308 307 306 306 305 304 303 302 300 299 298 297 297 296 295 295 294 293 293 292 291 290 289 288 288 287 286 286 285 284 284 283 283 282 281 281 281 281 280 280 280 279
104 79 28 39 42 33 7 352 2 18 30 45 55 32 342 330 327 328 331 323 316 307 304 308 304 297 283 269 269 276 280 285 287 289 294 296 302 307 311 312 312 312 310 309 308 307 306 305 304 304 303 302 301 300 299 299 298 298 297 296 296 295 294 293 292 291 290 289 288 287 286 286 285 284 283 283 282 282 281 281 281 281 281 281 281 281
57 73 55 38 60 86 105 306 332 359 25 42 71 99 124 306 318 326 328 318 312 309 309 292 292 293 291 280 271 271 277 287 294 299 304 307 309 311 311 312 311 309 308 307 306 306 305 304 303 303 302 301 300 300 300 300 300 300 299 298 297 296 295 294 293 292 291 290 289 288 287 286 285 284 283 283 282 282 282 282 282 282 282 282 282 282
21 28 42 13 8 16 153 271 301 341 21 38 42 49 89 146 172 306 310 301 301 303 302 277 274 282 295 295 288 281 281 290 297 303 308 309 309 310 309 308 307 305 305 305 304 304 303 302 302 301 300 300 300 300 301 301 301 300 299 298 297 296 295 294 293 292 291 290 289 288 288 287 286 285 285 284 284 284 284 284 284 283 283 283 283 282
15 9 22 13 1 349 333 319 329 356 30 40 28 3 333 265 173 173 260 281 288 292 291 278 265 260 270 281 285 288 297 295 294 296 299 301 301 301 301 302 302 301 302 302 301 301 300 300 299 299 299 299 300 300 300 300 300 299 298 297 296 295 295 294 293 293 292 291 291 290 289 289 288 287 287 287 286 286 286 285 285 284 283 283 283 282
9 2 11 12 5 354 346 353 360 10 25 50 56 276 279 262 210 170 222 261 273 278 282 285 280 268 253 249 255 273 299 291 286 284 288 289 287 286 287 290 292 294 295 296 295 295 296 296 297 297 297 298 298 299 299 298 297 297 296 296 295 295 295 295 294 294 294 293 293 292 292 291 290 290 289 288 288 287 286 286 285 284 284 284 283 283
3 360 14 6 350 336 344 34 34 5 312 207 200 209 224 231 211 176 250 267 267 267 273 285 289 286 273 256 240 218 228 275 282 286 289 286 280 275 274 281 284 286 288 288 286 286 289 292 294 294 295 295 296 296 295 295 295 295 295 296 296 296 296 296 296 295 295 295 294 294 293 292 291 290 290 289 288 287 287 286 286 285 285 284 284 284
184 151 71 312 289 277 252 180 185 211 233 221 214 210 218 245 227 213 239 266 271 275 285 291 292 289 278 268 241 197 181 251 286 296 299 293 282 266 259 274 280 282 283 283 283 283 285 287 287 285 286 287 288 289 291 293 294 296 296 297 297 297 297 297 297 296 296 295 294 294 293 292 291 291 290 289 288 288 287 287 287 286 286 285 285 285
184 168 168 208 241 249 232 200 200 214 230 229 216 194 180 239 233 219 225 262 278 291 305 311 310 303 286 275 247 200 183 229 282 298 303 298 292 274 247 270 281 284 282 281 281 282 282 279 276 275 278 283 288 291 293 295 296 297 298 298 298 298 298 297 297 296 295 295 294 293 293 292 292 291 290 289 289 289 288 288 288 287 287 287 286 286
180 180 179 198 228 244 237 215 209 215 228 235 221 199 191 207 211 221 240 274 290 301 309 314 315 314 307 302 278 225 191 223 276 294 299 297 295 286 251 263 279 285 286 282 281 280 281 278 277 277 278 285 290 294 296 297 298 298 298 298 298 298 298 297 297 296 296 295 295 294 294 293 292 292 291 290 290 290 290 289 289 289 288 288 287 286
186 192 186 199 216 228 225 216 216 221 223 231 230 224 215 212 217 232 257 275 289 297 303 304 302 299 302 300 284 246 199 231 279 295 298 295 294 290 261 256 268 278 283 282 281 278 277 277 278 280 284 291 294 296 297 298 298 298 298 298 298 298 298 298 297 297 297 296 296 296 295 294 294 293 292 292 292 291 291 290 290 289 288 287 287 286
200 203 198 202 208 211 205 204 204 204 204 208 208 210 229 233 238 246 259 267 274 282 291 292 288 283 282 282 276 255 211 244 283 297 297 295 294 293 281 267 270 277 281 282 282 280 278 277 279 283 288 293 295 296 297 297 297 298 298 298 298 299 299 299 298 298 298 298 297 297 296 295 295 294 294 293 292 292 291 290 289 289 288 288 287 287
209 213 203 198 198 203 208 210 206 201 200 202 205 217 241 247 250 254 260 263 264 266 269 274 275 275 275 278 277 268 235 271 289 294 293 292 291 291 282 272 277 283 285 284 281 278 277 275 279 284 289 291 293 294 295 296 297 298 298 299 299 299 299 299 299 299 298 298 297 297 296 296 295 294 294 293 292 291 291 290 290 289 289 289 288 287
226 222 210 196 190 197 215 213 211 211 213 216 223 234 246 254 258 261 263 265 265 262 258 262 264 267 272 278 281 282 271 290 293 294 294 290 288 286 278 269 277 287 290 288 284 278 275 275 276 279 283 288 291 293 295 296 297 298 299 299 299 299 299 299 299 298 298 298 297 296 296 295 294 294 293 292 292 291 291 291 290 290 289 289 288 287
238 239 222 201 200 217 245 232 225 224 229 227 226 231 242 252 262 267 266 264 263 262 260 261 264 268 274 280 283 282 252 237 257 278 294 291 289 287 280 272 283 290 292 293 291 287 280 278 277 278 281 287 291 293 295 296 297 298 298 299 299 299 299 298 298 297 297 296 296 295 294 294 294 293 293 293 292 292 291 291 290 290 289 288 288 287
217 236 234 220 221 231 246 243 243 243 240 233 228 226 224 234 251 262 266 264 264 265 267 269 272 274 274 275 274 266 235 211 210 235 279 285 288 291 295 298 298 295 292 295 297 296 290 286 282 281 283 288 291 293 294 295 296 297 297 297 298 298 298 297 297 296 296 295 295 295 294 294 293 293 293 293 292 292 292 291 290 290 289 288 288 287
213 233 237 235 235 237 241 242 243 241 236 230 226 224 226 234 244 253 259 262 266 271 275 281 282 281 275 272 268 259 229 194 176 180 246 274 283 291 306 311 305 298 294 295 297 298 296 291 286 282 281 287 289 291 293 294 295 296 297 297 297 297 297 296 296 296 295 295 295 294 294 294 293 293 293 292 292 292 291 291 290 290 289 288 287 287
223 233 237 240 241 240 238 235 233 229 222 218 220 227 234 243 250 255 258 260 267 277 288 291 291 288 286 286 283 273 236 176 162 174 226 271 282 289 298 304 301 297 296 297 299 298 296 293 289 284 280 283 287 290 292 293 295 296 296 297 297 297 297 296 296 296 295 295 295 294 294 293 293 292 292 292 291 291 291 290 290 289 289 288 287 287
275 269 262 264 262 259 253 246 244 242 242 232 224 222 228 239 251 262 268 268 277 289 297 294 290 288 289 288 284 278 260 188 177 192 216 265 284 291 296 297 296 295 298 300 301 301 297 294 292 289 283 282 285 288 291 293 294 296 297 297 297 297 297 297 296 296 295 295 294 294 293 292 292 292 291 291 290 290 290 290 289 289 289 289 288 287
298 294 290 292 296 300 301 299 298 298 301 300 296 290 279 283 290 288 281 279 283 289 289 286 286 287 287 282 277 274 275 266 224 207 205 251 280 290 296 299 300 299 300 301 301 299 296 293 292 291 287 281 281 284 289 292 295 297 298 298 298 298 297 296 296 295 295 294 293 293 292 292 291 291 291 290 290 290 290 290 290 290 290 290 289 287
302 298 299 308 322 337 347 347 343 336 328 318 310 306 307 314 302 286 275 269 265 265 268 273 280 285 288 284 282 280 282 270 246 216 179 229 274 284 294 300 302 303 304 302 299 295 290 287 285 285 284 281 279 282 288 294 297 298 299 298 298 297 296 296 295 294 294 293 293 292 292 292 291 291 291 291 291 291 291 291 291 291 291 290 288 286
308 306 308 319 336 350 357 353 344 334 323 313 305 302 304 299 263 254 252 238 230 241 255 264 271 278 285 288 289 287 279 264 246 199 116 172 279 282 294 302 306 308 309 306 301 294 283 275 272 274 279 289 291 292 294 299 299 298 298 297 296 295 295 295 294 294 293 293 293 293 292 292 292 292 292 292 292 292 291 292 292 291 290 288 285 282
314 316 321 333 346 356 359 348 331 319 312 307 302 299 300 267 216 219 227 211 207 223 244 259 268 275 284 292 294 290 276 261 242 187 120 276 287 291 303 306 308 311 316 313 309 303 294 282 273 275 290 303 306 306 302 301 298 296 295 295 294 294 294 295 295 295 294 294 294 294 294 294 294 293 293 293 292 292 292 292 291 291 288 285 282 280
285 290 298 306 316 323 320 302 299 302 305 303 301 298 293 252 213 208 211 200 200 212 232 255 269 276 283 289 291 289 281 268 239 215 193 279 290 296 308 305 305 306 314 313 311 309 307 303 301 302 310 310 309 306 303 301 299 296 294 294 293 294 295 296 296 296 296 296 296 296 296 295 295 294 294 293 292 291 291 291 291 290 287 284 282 280
242 241 246 259 271 283 288 290 293 297 300 299 295 290 279 256 230 214 207 202 202 207 223 249 267 275 276 273 273 275 281 286 275 268 290 293 293 295 301 299 299 300 301 293 292 296 301 305 309 313 314 309 305 303 301 300 299 297 296 296 294 295 297 298 298 298 298 298 297 297 296 296 295 294 293 292 291 291 290 290 290 289 286 283 281 279
218 214 222 244 265 280 286 292 294 294 291 287 282 276 271 260 244 227 213 207 204 204 213 240 263 274 275 269 268 269 275 283 296 305 312 303 294 293 294 294 296 298 299 287 277 274 280 292 301 306 306 303 301 300 300 299 298 297 296 297 297 297 299 300 300 299 298 298 297 296 296 295 294 293 292 291 290 290 289 289 288 286 284 282 280 280
205 205 221 252 275 286 291 293 291 287 281 275 269 264 260 256 248 239 227 218 212 209 209 226 250 268 275 275 273 272 273 275 289 301 310 299 290 289 293 293 296 298 300 295 288 282 277 285 292 299 301 300 298 297 298 298 298 297 295 295 296 298 300 301 300 299 297 297 296 295 295 293 292 291 290 290 289 288 288 287 286 285 284 282 281 281
201 219 237 258 276 287 291 292 289 282 275 269 263 258 252 248 245 242 238 232 227 223 219 223 233 247 261 269 274 277 278 277 287 295 297 288 286 288 291 290 293 297 299 296 295 293 288 289 292 296 299 300 299 297 295 295 296 297 296 295 296 297 298 299 299 298 297 296 294 292 291 290 289 288 288 288 287 287 287 287 286 285 284 283 281 280
202 233 250 258 267 274 278 278 277 273 269 265 259 254 248 244 243 242 242 241 241 242 241 237 235 235 240 251 261 270 276 279 284 286 284 280 281 285 287 287 291 294 295 294 293 293 292 293 294 295 297 299 300 300 299 298 298 299 300 299 298 296 295 294 294 294 294 293 292 290 289 289 288 287 287 287 288 288 288 287 287 286 285 283 281 279
214 240 253 251 249 250 255 257 256 254 255 256 255 253 248 246 245 245 247 245 247 251 254 253 250 246 243 245 250 258 267 273 276 276 274 272 272 276 279 282 285 286 286 289 291 292 293 295 296 297 296 295 297 301 306 308 307 303 300 300 299 297 294 292 290 289 289 289 289 290 290 290 290 289 289 289 289 289 288 287 286 285 284 282 280 278
243 253 256 246 236 232 234 237 237 235 234 239 244 248 247 246 245 245 250 249 249 251 256 256 257 255 251 254 255 257 262 266 268 268 267 265 265 268 272 277 279 278 276 280 285 289 292 295 298 300 298 295 295 297 302 306 306 305 302 300 298 296 294 292 290 289 288 289 290 290 290 290 290 289 289 288 288 288 287 286 285 284 283 282 280 278
258 260 254 242 231 224 222 226 227 227 226 230 235 240 243 246 246 246 248 250 250 249 249 250 254 256 254 256 259 261 264 264 263 263 262 259 257 259 264 271 274 275 273 274 276 280 284 287 291 295 298 299 299 299 299 301 302 303 304 302 298 294 291 292 292 291 291 290 290 289 289 288 287 287 287 287 287 287 286 285 284 283 283 283 281 279
256 255 248 241 231 223 219 223 224 224 224 232 241 249 256 263 264 261 257 256 255 254 249 248 251 256 257 260 262 264 265 264 263 262 260 255 251 251 255 263 269 274 276 273 272 273 275 279 283 287 290 294 298 300 301 300 301 302 305 303 301 297 297 296 294 292 288 286 286 286 287 287 287 287 286 286 285 284 284 285 284 284 283 282 282 282
251 250 246 242 235 229 227 228 227 225 224 234 253 272 280 280 281 279 277 273 269 267 267 265 267 270 269 264 261 260 259 260 260 259 258 254 253 252 253 257 264 270 275 275 273 272 272 278 283 288 290 293 295 296 295 295 297 298 300 297 295 295 297 295 292 289 286 285 285 286 288 289 289 288 287 286 284 283 282 283 284 284 283 279 277 277
249 246 241 237 235 234 236 238 239 239 235 239 264 276 276 277 279 281 285 285 284 283 285 291 295 294 291 279 268 260 255 255 255 255 256 254 253 252 253 255 260 266 272 275 275 275 275 281 286 290 293 295 296 294 292 291 292 292 292 291 293 295 294 290 287 287 288 288 288 288 288 289 289 289 288 288 286 285 283 282 282 282 282 279 275 272
243 241 236 232 230 231 237 251 259 265 267 278 272 267 265 267 274 281 286 283 284 286 291 294 295 296 297 292 285 274 263 255 253 253 254 253 252 251 252 254 256 261 267 275 281 284 286 286 287 288 290 291 290 289 288 290 291 290 287 289 293 296 296 295 294 293 290 289 288 288 288 288 289 289 289 289 288 287 287 284 282 281 279 278 276 272
237 238 236 232 231 233 237 242 247 250 251 256 260 262 265 269 276 282 286 282 282 286 292 291 290 289 290 291 291 289 281 269 259 254 254 254 253 252 253 253 252 254 257 272 285 292 295 291 288 286 286 287 285 284 285 287 288 289 288 288 288 287 285 291 296 298 294 290 289 288 289 290 291 292 291 290 289 288 287 284 281 278 276 274 272 271
232 234 234 232 232 234 243 242 240 239 238 248 256 264 271 274 278 281 280 278 281 284 284 288 292 294 293 296 300 302 300 295 286 274 266 263 262 262 261 258 257 258 260 269 279 287 292 292 291 290 288 284 281 279 281 284 287 288 288 288 286 283 280 285 290 293 293 292 291 291 293 295 296 296 294 292 290 287 285 283 282 280 277 274 272 270
224 227 233 232 236 241 248 246 242 240 244 255 262 267 269 271 271 271 268 268 272 276 278 285 294 299 301 304 306 307 306 305 302 298 291 280 274 270 267 264 266 269 273 274 275 276 277 282 286 289 290 286 280 276 275 280 283 286 287 288 288 287 285 286 287 288 289 291 293 295 298 300 299 297 294 292 291 288 285 283 281 280 279 276 273 271
213 217 226 230 236 242 248 249 250 252 258 263 265 265 263 263 264 264 262 258 265 277 290 294 296 297 297 300 302 304 306 307 307 306 305 299 291 284 276 273 272 272 275 275 274 272 271 271 274 278 283 284 283 280 277 277 279 282 286 289 290 290 288 288 288 289 290 291 294 298 303 304 301 297 293 293 291 289 287 283 280 278 277 276 274 272
207 213 221 227 234 243 250 252 253 259 265 269 271 270 267 269 274 277 271 265 272 288 302 304 301 297 294 293 295 299 302 304 306 307 308 306 303 297 290 288 285 282 279 276 274 272 270 266 263 263 267 272 276 279 281 280 279 280 283 286 288 288 287 288 290 292 293 294 295 298 302 302 299 298 297 295 293 290 288 285 282 278 275 274 273 273
203 209 218 227 236 244 249 250 254 259 263 270 274 276 270 275 284 288 282 279 282 291 300 301 299 297 295 294 295 298 300 301 302 304 307 308 308 307 305 304 303 300 293 285 280 275 271 264 256 250 249 254 263 271 278 279 279 279 280 282 285 288 289 291 294 296 298 298 298 298 298 296 294 293 294 293 291 290 289 288 285 281 278 275 273 273
204 208 214 221 231 240 245 248 252 258 264 272 277 280 276 277 281 284 281 280 282 286 291 294 295 295 295 296 298 300 302 302 303 304 306 308 310 311 312 314 314 313 308 302 297 293 288 278 263 250 243 244 250 260 272 277 281 282 283 284 287 290 292 294 296 298 300 300 300 300 298 294 291 288 287 287 288 288 289 289 287 285 282 280 278 276
209 207 206 210 220 230 238 241 246 252 261 272 279 284 285 286 286 286 284 284 286 288 289 290 290 291 293 296 299 302 303 303 304 305 307 308 311 312 313 317 318 318 315 312 310 308 304 301 292 275 255 249 251 256 267 278 286 291 291 290 291 292 292 294 296 299 301 300 300 299 296 294 290 288 285 285 287 289 290 289 288 288 287 287 285 283